cjoint

Publicité


Publicité

Format du document : text/plain

Prévisualisation

ComboFix 15-04-28.01 - Jules 03.05.2015 22:31:25.1.4 - x64
Microsoft Windows�7 �dition Int�grale 6.1.7601.1.1252.41.1036.18.8150.5273 [GMT 2:00]
Lanc� depuis: C:\Users\Jules\Desktop\ComboFix.exe
AV: Avira Antivirus *Disabled/Updated* {4D041356-F94D-285F-8768-AAE50FA36859}
SP: Avira Antivirus *Disabled/Updated* {F665F2B2-DF77-27D1-BDD8-9197742422E4}
SP: Windows Defender *Disabled/Outdated* {D68DDC3A-831F-4fae-9E44-DA132C1ACF46}


(((((((((((((((((((((((((((((((((((( Autres suppressions ))))))))))))))))))))))))))))))))))))))))))))))))


C:\ProgramData\ma-config.com\Logs\activex.txt
C:\ProgramData\ma-config.com\Logs\mcstubuser.txt
C:\ProgramData\ma-config.com\Logs\npapi.txt
C:\ProgramData\ma-config.com\mcbase.db
C:\ProgramData\ma-config.com\server.pem
C:\ProgramData\Microsoft\Windows\Start Menu\Programs\Startup\vpngui.exe.lnk
C:\Users\Jules\AppData\Local\Adobe\SecurityScan_Release.exe
C:\Windows\SysWow64\Packet.dll
C:\Windows\SysWow64\pthreadVC.dll
C:\Windows\SysWow64\wpcap.dll


((((((((((((((((((((((((((((( Fichiers cr��s du 2015-04-03 au 2015-05-03 ))))))))))))))))))))))))))))))))))))


2015-05-03 20:34:33 . 2015-05-03 20:34:33 -------- d-----w- C:\Users\Default\AppData\Local\temp
2015-05-03 16:28:02 . 2015-05-03 16:29:00 -------- d-----w- C:\FRST
2015-04-19 18:15:41 . 2015-04-19 18:16:44 -------- d-----w- C:\AdwCleaner
2015-04-19 16:54:53 . 2015-04-19 16:54:54 -------- d-----w- C:\MGADiagToolOutput
2015-04-19 16:54:23 . 2015-04-19 16:54:23 -------- d-----w- C:\ProgramData\Office Genuine Advantage
2015-04-19 16:46:13 . 2015-04-20 21:55:27 -------- d-sh--w- C:\Windows\Installer
2015-04-19 16:45:39 . 2015-05-03 13:37:44 512 ----a-w- C:\PhysicalDisk0_MBR.bin
2015-04-19 14:34:40 . 2015-04-19 19:37:59 -------- d-----w- C:\Program Files (x86)\Arab-GB
2015-04-19 14:33:45 . 2015-04-19 14:33:45 30352 ----a-w- C:\Windows\system32\drivers\dtlitescsibus.sys
2015-04-19 14:33:42 . 2015-04-19 14:33:45 -------- d-----w- C:\Program Files\DAEMON Tools Lite
2015-04-19 10:47:36 . 2015-05-03 12:17:37 -------- d-----w- C:\Program Files (x86)\ZHPDiag
2015-04-15 17:10:51 . 2015-03-25 03:00:57 92672 ----a-w- C:\Windows\SysWow64\wudriver.dll
2015-04-15 17:09:58 . 2015-03-05 05:12:33 404480 ----a-w- C:\Windows\system32\gdi32.dll
2015-04-15 17:09:58 . 2015-03-05 04:05:06 311808 ----a-w- C:\Windows\SysWow64\gdi32.dll
2015-04-15 17:09:04 . 2015-03-10 03:25:10 1882624 ----a-w- C:\Windows\system32\msxml3.dll
2015-04-15 17:09:04 . 2015-03-10 03:21:42 2048 ----a-w- C:\Windows\system32\msxml3r.dll
2015-04-15 17:09:04 . 2015-03-10 03:08:26 1237504 ----a-w- C:\Windows\SysWow64\msxml3.dll
2015-04-15 17:09:04 . 2015-03-10 03:05:39 2048 ----a-w- C:\Windows\SysWow64\msxml3r.dll
2015-04-15 17:08:11 . 2015-02-25 03:18:01 754688 ----a-w- C:\Windows\system32\drivers\http.sys
2015-04-15 17:03:00 . 2015-03-04 04:55:13 367552 ----a-w- C:\Windows\system32\clfs.sys
2015-04-15 17:03:00 . 2015-03-04 04:41:27 79360 ----a-w- C:\Windows\system32\clfsw32.dll
2015-04-15 17:03:00 . 2015-03-04 04:10:54 58880 ----a-w- C:\Windows\SysWow64\clfsw32.dll
2015-04-14 18:02:29 . 2015-04-16 20:01:17 17549488 ----a-w- C:\Windows\SysWow64\FlashPlayerInstaller.exe
2015-04-13 18:42:13 . 2015-04-19 14:32:13 -------- d-----w- C:\Program Files (x86)\Rockstar Games
2015-04-13 18:42:07 . 2015-04-19 14:32:12 -------- d-----w- C:\Program Files\Rockstar Games
2015-04-13 18:30:54 . 2015-04-13 18:30:54 -------- d-----w- C:\Users\Jules\AppData\Local\Rockstar Games
2015-04-13 17:44:04 . 2015-04-13 17:44:04 -------- d-----w- C:\Program Files (x86)\JAM Software
.


(((((((((((((((((((((((((((((((((( Compte-rendu de Find3M ))))))))))))))))))))))))))))))))))))))))))))))))

2015-04-19 19:22:31 . 2014-05-26 21:12:15 136408 ----a-w- C:\Windows\system32\drivers\MBAMSwissArmy.sys
2015-04-19 14:21:49 . 2014-07-07 17:03:19 37624 ----a-w- C:\Windows\system32\drivers\TrueSight.sys
2015-04-15 21:41:16 . 2012-10-05 14:25:16 128913832 ----a-w- C:\Windows\system32\MRT.exe
2015-03-28 03:44:01 . 2014-06-03 07:35:03 1316000 ----a-w- C:\Windows\SysWow64\nvspbridge.dll
2015-03-28 03:44:01 . 2013-12-14 23:45:54 1316000 ----a-w- C:\Windows\SysWow64\nvspcap.dll
2015-03-28 03:43:39 . 2014-06-03 07:35:03 1756424 ----a-w- C:\Windows\system32\nvspbridge64.dll
2015-03-28 03:43:39 . 2013-12-14 23:45:54 1570672 ----a-w- C:\Windows\system32\nvspcap64.dll
2015-03-22 10:44:18 . 2015-03-22 10:44:23 320424 ----a-w- C:\Windows\system32\javaws.exe
2015-03-22 10:44:18 . 2015-03-22 10:44:20 189352 ----a-w- C:\Windows\system32\javaw.exe
2015-03-22 10:44:18 . 2015-03-22 10:44:20 189352 ----a-w- C:\Windows\system32\java.exe
2015-03-22 10:44:18 . 2015-03-22 10:44:20 111016 ----a-w- C:\Windows\system32\WindowsAccessBridge-64.dll
2015-03-22 10:43:07 . 2015-03-22 10:43:09 98216 ----a-w- C:\Windows\SysWow64\WindowsAccessBridge-32.dll
2015-03-17 04:56:56 . 2015-04-15 17:13:11 44032 ----a-w- C:\Windows\apppatch\acwow64.dll
2015-03-17 04:15:38 . 2014-05-26 21:12:10 63704 ----a-w- C:\Windows\system32\drivers\mwac.sys
2015-03-17 04:15:28 . 2014-05-26 21:12:10 107736 ----a-w- C:\Windows\system32\drivers\mbamchameleon.sys
2015-03-17 04:15:24 . 2012-10-08 23:02:12 25816 ----a-w- C:\Windows\system32\drivers\mbam.sys
2015-03-13 19:41:47 . 2015-03-22 10:54:07 997856 ----a-w- C:\Windows\system32\nvumdshimx.dll
2015-03-13 19:41:47 . 2015-03-22 10:54:07 970384 ----a-w- C:\Windows\system32\NvIFR64.dll
2015-03-13 19:41:47 . 2015-03-22 10:54:07 944784 ----a-w- C:\Windows\system32\NvFBC64.dll
2015-03-13 19:41:47 . 2015-03-22 10:54:07 930448 ----a-w- C:\Windows\SysWow64\NvIFR.dll
2015-03-13 19:41:47 . 2015-03-22 10:54:07 909512 ----a-w- C:\Windows\SysWow64\NvFBC.dll
2015-03-13 19:41:47 . 2015-03-22 10:54:07 878328 ----a-w- C:\Windows\SysWow64\nvumdshim.dll
2015-03-13 19:41:47 . 2015-03-22 10:54:07 496272 ----a-w- C:\Windows\system32\nvEncodeAPI64.dll
2015-03-13 19:41:47 . 2015-03-22 10:54:07 400584 ----a-w- C:\Windows\SysWow64\nvEncodeAPI.dll
2015-03-13 19:41:47 . 2015-03-22 10:54:07 390288 ----a-w- C:\Windows\system32\NvIFROpenGL.dll
2015-03-13 19:41:47 . 2015-03-22 10:54:07 3611792 ----a-w- C:\Windows\system32\nvcuvid.dll
2015-03-13 19:41:47 . 2015-03-22 10:54:07 354112 ----a-w- C:\Windows\system32\nvoglshim64.dll
2015-03-13 19:41:47 . 2015-03-22 10:54:07 346824 ----a-w- C:\Windows\SysWow64\NvIFROpenGL.dll
2015-03-13 19:41:47 . 2015-03-22 10:54:07 3249352 ----a-w- C:\Windows\SysWow64\nvcuvid.dll
2015-03-13 19:41:47 . 2015-03-22 10:54:07 32114888 ----a-w- C:\Windows\system32\nvoglv64.dll
2015-03-13 19:41:47 . 2015-03-22 10:54:07 306208 ----a-w- C:\Windows\SysWow64\nvoglshim32.dll
2015-03-13 19:41:47 . 2015-03-22 10:54:07 25460880 ----a-w- C:\Windows\system32\nvcompiler.dll
2015-03-13 19:41:47 . 2015-03-22 10:54:07 24775368 ----a-w- C:\Windows\SysWow64\nvoglv32.dll
2015-03-13 19:41:47 . 2015-03-22 10:54:07 20466376 ----a-w- C:\Windows\SysWow64\nvcompiler.dll
2015-03-13 19:41:47 . 2015-03-22 10:54:07 1896136 ----a-w- C:\Windows\system32\nvdispco6434788.dll
2015-03-13 19:41:47 . 2015-03-22 10:54:07 178512 ----a-w- C:\Windows\system32\nvinitx.dll
2015-03-13 19:41:47 . 2015-03-22 10:54:07 17258024 ----a-w- C:\Windows\system32\nvd3dumx.dll
2015-03-13 19:41:47 . 2015-03-22 10:54:07 164568 ----a-w- C:\Windows\SysWow64\nvinit.dll
2015-03-13 19:41:47 . 2015-03-22 10:54:07 16022016 ----a-w- C:\Windows\SysWow64\nvwgf2um.dll
2015-03-13 19:41:47 . 2015-03-22 10:54:07 1557648 ----a-w- C:\Windows\system32\nvdispgenco6434788.dll
2015-03-13 19:41:47 . 2015-03-22 10:54:07 13297144 ----a-w- C:\Windows\system32\nvopencl.dll
2015-03-13 19:41:47 . 2015-03-22 10:54:07 13210080 ----a-w- C:\Windows\system32\nvcuda.dll
2015-03-13 19:41:47 . 2015-03-22 10:54:07 10775080 ----a-w- C:\Windows\SysWow64\nvopencl.dll
2015-03-13 19:41:47 . 2015-03-22 10:54:07 10715864 ----a-w- C:\Windows\SysWow64\nvcuda.dll
2015-03-13 19:41:47 . 2015-03-22 10:54:07 10262160 ----a-w- C:\Windows\system32\drivers\nvlddmkm.sys
2015-03-13 19:41:47 . 2013-02-04 13:44:56 2906928 ----a-w- C:\Windows\SysWow64\nvapi.dll
2015-03-13 19:41:47 . 2013-02-04 13:44:56 14121624 ----a-w- C:\Windows\SysWow64\nvd3dum.dll
2015-03-13 19:41:47 . 2012-10-05 13:59:31 18580512 ----a-w- C:\Windows\system32\nvwgf2umx.dll
2015-03-13 19:41:47 . 2012-10-05 13:37:35 3303448 ----a-w- C:\Windows\system32\nvapi64.dll
2015-03-13 16:16:47 . 2012-10-05 13:38:33 6861968 ----a-w- C:\Windows\system32\nvcpl.dll
2015-03-13 16:16:47 . 2012-10-05 13:38:33 3526856 ----a-w- C:\Windows\system32\nvsvc64.dll
2015-03-13 16:16:45 . 2012-10-05 13:38:33 935056 ----a-w- C:\Windows\system32\nvvsvc.exe
2015-03-13 16:16:45 . 2012-10-05 13:38:33 62608 ----a-w- C:\Windows\system32\nvshext.dll
2015-03-13 16:16:45 . 2012-10-05 13:38:33 386248 ----a-w- C:\Windows\system32\nvmctray.dll
2015-03-13 16:16:45 . 2012-10-05 13:38:33 2559808 ----a-w- C:\Windows\system32\nvsvcr.dll
2015-03-13 15:38:39 . 2015-03-22 10:54:58 622224 ----a-w- C:\Windows\SysWow64\nvStreaming.exe
2015-03-11 13:10:00 . 2012-10-05 13:38:33 4246327 ----a-w- C:\Windows\system32\nvcoproc.bin
2015-03-10 10:19:54 . 2013-05-13 09:07:56 44088 ----a-w- C:\Windows\system32\drivers\avnetflt.sys
2015-03-10 10:19:51 . 2013-03-29 20:44:28 132120 ----a-w- C:\Windows\system32\drivers\avipbb.sys
2015-03-10 10:19:50 . 2013-03-29 20:44:28 128536 ----a-w- C:\Windows\system32\drivers\avgntflt.sys
2015-02-26 03:25:44 . 2015-03-10 21:37:12 3204096 ----a-w- C:\Windows\system32\win32k.sys
2015-02-21 09:01:22 . 2015-02-21 09:01:22 875472 ----a-w- C:\Windows\SysWow64\msvcr110.dll
2015-02-21 09:01:22 . 2015-02-21 09:01:22 535008 ----a-w- C:\Windows\SysWow64\msvcp110.dll
2015-02-21 09:01:22 . 2015-02-21 09:01:22 252400 ----a-w- C:\Windows\SysWow64\vccorlib110.dll
2015-02-20 04:41:01 . 2015-03-10 21:37:53 41984 ----a-w- C:\Windows\system32\lpk.dll
2015-02-20 04:40:59 . 2015-03-10 21:37:52 100864 ----a-w- C:\Windows\system32\fontsub.dll
2015-02-20 04:40:56 . 2015-03-10 21:37:52 14336 ----a-w- C:\Windows\system32\dciman32.dll
2015-02-20 04:40:55 . 2015-03-10 21:37:52 46080 ----a-w- C:\Windows\system32\atmlib.dll
2015-02-20 04:13:49 . 2015-03-10 21:37:52 70656 ----a-w- C:\Windows\SysWow64\fontsub.dll
2015-02-20 04:13:46 . 2015-03-10 21:37:52 10240 ----a-w- C:\Windows\SysWow64\dciman32.dll
2015-02-20 04:13:43 . 2015-03-10 21:37:52 34304 ----a-w- C:\Windows\SysWow64\atmlib.dll
2015-02-20 04:12:51 . 2015-03-10 21:37:52 25600 ----a-w- C:\Windows\SysWow64\lpk.dll
2015-02-20 03:29:16 . 2015-03-10 21:37:53 372224 ----a-w- C:\Windows\system32\atmfd.dll
2015-02-20 03:09:16 . 2015-03-10 21:37:53 299008 ----a-w- C:\Windows\SysWow64\atmfd.dll
2015-02-13 05:22:33 . 2015-03-10 21:37:17 14177280 ----a-w- C:\Windows\system32\shell32.dll
2015-02-05 20:01:18 . 2012-10-09 23:35:02 71344 ----a-w- C:\Windows\SysWow64\FlashPlayerCPLApp.cpl
2015-02-05 20:01:18 . 2012-10-09 23:35:02 701616 ----a-w- C:\Windows\SysWow64\FlashPlayerApp.exe
2015-02-04 03:16:35 . 2015-03-10 21:36:27 465920 ----a-w- C:\Windows\system32\WMPhoto.dll
2015-02-04 02:54:09 . 2015-03-10 21:36:27 417792 ----a-w- C:\Windows\SysWow64\WMPhoto.dll
2015-02-03 03:34:39 . 2015-03-10 21:37:40 693176 ----a-w- C:\Windows\system32\winload.efi
2015-02-03 03:34:36 . 2015-03-10 21:37:41 94656 ----a-w- C:\Windows\system32\drivers\mountmgr.sys
2015-02-03 03:33:29 . 2015-03-10 21:37:42 616360 ----a-w- C:\Windows\system32\winresume.efi
2015-02-03 03:31:23 . 2015-03-10 21:37:44 14632960 ----a-w- C:\Windows\system32\wmp.dll
2015-02-03 03:31:23 . 2015-03-10 21:37:43 782848 ----a-w- C:\Windows\system32\wmdrmsdk.dll
2015-02-03 03:31:23 . 2015-03-10 21:37:42 229376 ----a-w- C:\Windows\system32\wintrust.dll
2015-02-03 03:31:16 . 2015-03-10 21:37:13 1424896 ----a-w- C:\Windows\system32\WindowsCodecs.dll
2015-02-03 03:31:08 . 2015-03-10 21:37:18 215552 ----a-w- C:\Windows\system32\ubpm.dll
2015-02-03 03:31:07 . 2015-03-10 21:37:38 5120 ----a-w- C:\Windows\system32\msdxm.ocx
2015-02-03 03:31:07 . 2015-03-10 21:37:38 5120 ----a-w- C:\Windows\system32\dxmasf.dll
2015-02-03 03:31:06 . 2015-03-10 21:37:39 63488 ----a-w- C:\Windows\system32\setbcdlocale.dll
2015-02-03 03:31:05 . 2015-03-10 21:37:42 371712 ----a-w- C:\Windows\system32\qdvd.dll
2015-02-03 03:31:05 . 2015-03-10 21:37:42 1574400 ----a-w- C:\Windows\system32\quartz.dll
2015-02-03 03:31:05 . 2015-03-10 21:37:40 500224 ----a-w- C:\Windows\system32\AUDIOKSE.dll
2015-02-03 03:31:04 . 2015-03-10 21:37:42 188416 ----a-w- C:\Windows\system32\pcasvc.dll
2015-02-03 03:31:04 . 2015-03-10 21:37:39 37376 ----a-w- C:\Windows\system32\pcadm.dll
2015-02-03 03:31:04 . 2015-03-10 21:37:38 9728 ----a-w- C:\Windows\system32\spwmp.dll
2015-02-03 03:31:03 . 2015-03-10 21:37:41 641024 ----a-w- C:\Windows\system32\msscp.dll
2015-02-03 03:31:03 . 2015-03-10 21:37:40 325632 ----a-w- C:\Windows\system32\msnetobj.dll
2015-02-03 03:31:03 . 2015-03-10 21:37:39 11264 ----a-w- C:\Windows\system32\msmmsp.dll
2015-02-03 03:31:01 . 2015-03-10 21:37:43 4121600 ----a-w- C:\Windows\system32\mf.dll


((((((((((((((((((((((((((((((((( Points de chargement Reg ))))))))))))))))))))))))))))))))))))))))))))))))


*Note* les �l�ments vides & les �l�ments initiaux l�gitimes ne sont pas list�s
REGEDIT4

[HKEY_LOCAL_MACHINE\software\wow6432node\microsoft\windows\currentversion\explorer\shelliconoverlayidentifiers\ SkyDrivePro1 (ErrorConflict)]
@="{8BA85C75-763B-4103-94EB-9470F12FE0F7}"
[HKEY_CLASSES_ROOT\CLSID\{8BA85C75-763B-4103-94EB-9470F12FE0F7}]
2014-10-14 22:31:58 1729752 ----a-w- C:\PROGRA~2\MICROS~2\Office15\GROOVEEX.DLL

[HKEY_LOCAL_MACHINE\software\wow6432node\microsoft\windows\currentversion\explorer\shelliconoverlayidentifiers\ SkyDrivePro2 (SyncInProgress)]
@="{CD55129A-B1A1-438E-A425-CEBC7DC684EE}"
[HKEY_CLASSES_ROOT\CLSID\{CD55129A-B1A1-438E-A425-CEBC7DC684EE}]
2014-10-14 22:31:58 1729752 ----a-w- C:\PROGRA~2\MICROS~2\Office15\GROOVEEX.DLL

[HKEY_LOCAL_MACHINE\software\wow6432node\microsoft\windows\currentversion\explorer\shelliconoverlayidentifiers\ SkyDrivePro3 (InSync)]
@="{E768CD3B-BDDC-436D-9C13-E1B39CA257B1}"
[HKEY_CLASSES_ROOT\CLSID\{E768CD3B-BDDC-436D-9C13-E1B39CA257B1}]
2014-10-14 22:31:58 1729752 ----a-w- C:\PROGRA~2\MICROS~2\Office15\GROOVEEX.DLL

[HKEY_LOCAL_MACHINE\software\wow6432node\microsoft\windows\currentversion\explorer\shelliconoverlayidentifiers\"DropboxExt1"]
@="{FB314ED9-A251-47B7-93E1-CDD82E34AF8B}"
[HKEY_CLASSES_ROOT\CLSID\{FB314ED9-A251-47B7-93E1-CDD82E34AF8B}]
2015-01-30 21:59:40 152544 ----a-w- C:\Users\Jules\AppData\Roaming\Dropbox\bin\DropboxExt.25.dll

[HKEY_LOCAL_MACHINE\software\wow6432node\microsoft\windows\currentversion\explorer\shelliconoverlayidentifiers\"DropboxExt2"]
@="{FB314EDA-A251-47B7-93E1-CDD82E34AF8B}"
[HKEY_CLASSES_ROOT\CLSID\{FB314EDA-A251-47B7-93E1-CDD82E34AF8B}]
2015-01-30 21:59:40 152544 ----a-w- C:\Users\Jules\AppData\Roaming\Dropbox\bin\DropboxExt.25.dll

[HKEY_LOCAL_MACHINE\software\wow6432node\microsoft\windows\currentversion\explorer\shelliconoverlayidentifiers\"DropboxExt3"]
@="{FB314EDD-A251-47B7-93E1-CDD82E34AF8B}"
[HKEY_CLASSES_ROOT\CLSID\{FB314EDD-A251-47B7-93E1-CDD82E34AF8B}]
2015-01-30 21:59:40 152544 ----a-w- C:\Users\Jules\AppData\Roaming\Dropbox\bin\DropboxExt.25.dll

[HKEY_LOCAL_MACHINE\software\wow6432node\microsoft\windows\currentversion\explorer\shelliconoverlayidentifiers\"DropboxExt4"]
@="{FB314EDE-A251-47B7-93E1-CDD82E34AF8B}"
[HKEY_CLASSES_ROOT\CLSID\{FB314EDE-A251-47B7-93E1-CDD82E34AF8B}]
2015-01-30 21:59:40 152544 ----a-w- C:\Users\Jules\AppData\Roaming\Dropbox\bin\DropboxExt.25.dll

[HKEY_LOCAL_MACHINE\software\wow6432node\microsoft\windows\currentversion\explorer\shelliconoverlayidentifiers\"DropboxExt5"]
@="{FB314EDB-A251-47B7-93E1-CDD82E34AF8B}"
[HKEY_CLASSES_ROOT\CLSID\{FB314EDB-A251-47B7-93E1-CDD82E34AF8B}]
2015-01-30 21:59:40 152544 ----a-w- C:\Users\Jules\AppData\Roaming\Dropbox\bin\DropboxExt.25.dll

[HKEY_LOCAL_MACHINE\software\wow6432node\microsoft\windows\currentversion\explorer\shelliconoverlayidentifiers\"DropboxExt6"]
@="{FB314EDF-A251-47B7-93E1-CDD82E34AF8B}"
[HKEY_CLASSES_ROOT\CLSID\{FB314EDF-A251-47B7-93E1-CDD82E34AF8B}]
2015-01-30 21:59:40 152544 ----a-w- C:\Users\Jules\AppData\Roaming\Dropbox\bin\DropboxExt.25.dll

[HKEY_LOCAL_MACHINE\software\wow6432node\microsoft\windows\currentversion\explorer\shelliconoverlayidentifiers\"DropboxExt7"]
@="{FB314EDC-A251-47B7-93E1-CDD82E34AF8B}"
[HKEY_CLASSES_ROOT\CLSID\{FB314EDC-A251-47B7-93E1-CDD82E34AF8B}]
2015-01-30 21:59:40 152544 ----a-w- C:\Users\Jules\AppData\Roaming\Dropbox\bin\DropboxExt.25.dll

[HKEY_LOCAL_MACHINE\software\wow6432node\microsoft\windows\currentversion\explorer\shelliconoverlayidentifiers\"DropboxExt8"]
@="{FB314EE0-A251-47B7-93E1-CDD82E34AF8B}"
[HKEY_CLASSES_ROOT\CLSID\{FB314EE0-A251-47B7-93E1-CDD82E34AF8B}]
2015-01-30 21:59:40 152544 ----a-w- C:\Users\Jules\AppData\Roaming\Dropbox\bin\DropboxExt.25.dll

[HKEY_CURRENT_USER\SOFTWARE\Microsoft\Windows\CurrentVersion\Run]
"iCloudServices"="C:\Program Files (x86)\Common Files\Apple\Internet Services\iCloudServices.exe" [2013-11-20 13:43:26 59720]
"ApplePhotoStreams"="C:\Program Files (x86)\Common Files\Apple\Internet Services\ApplePhotoStreams.exe" [2013-11-20 13:43:14 59720]
"AppleIEDAV"="C:\Program Files (x86)\Common Files\Apple\Internet Services\AppleIEDAV.exe" [2013-11-15 10:01:12 1326408]
"HP Officejet 4620 series (NET)"="C:\Program Files\HP\HP Officejet 4620 series\Bin\ScanToPCActivationApp.exe" [2012-10-17 03:29:50 2573416]
"CCleaner Monitoring"="C:\Program Files\CCleaner\CCleaner64.exe" [2015-02-19 16:40:12 7416088]
"Dashlane"="C:\Users\Jules\AppData\Roaming\Dashlane\Dashlane.exe" [2015-04-17 16:47:26 227512]
"Spotify Web Helper"="C:\Users\Jules\AppData\Roaming\Spotify\SpotifyWebHelper.exe" [2015-04-24 09:20:16 2020920]
"Spotify"="C:\Users\Jules\AppData\Roaming\Spotify\Spotify.exe" [2015-04-24 09:20:16 7168568]
"DAEMON Tools Lite"="C:\Program Files\DAEMON Tools Lite\DTLite.exe" [2015-03-31 06:32:18 5585136]
"GoogleChromeAutoLaunch_9DE2141967C73CDE0C5660FB1EC6B8AB"="C:\Program Files (x86)\Google\Chrome\Application\chrome.exe" [2015-04-27 23:59:59 866120]

[HKEY_LOCAL_MACHINE\SOFTWARE\Wow6432Node\Microsoft\Windows\CurrentVersion\Run]
"HDAudDeck"="C:\Program Files (x86)\VIA\VIAudioi\VDeck\VDeck.exe" [2012-01-12 13:22:08 5028464]
"IAStorIcon"="C:\Program Files (x86)\Intel\Intel(R) Rapid Storage Technology\IAStorIcon.exe" [2011-11-29 18:04:54 284440]
"USB3MON"="C:\Program Files (x86)\Intel\Intel(R) USB 3.0 eXtensible Host Controller Driver\Application\iusb3mon.exe" [2013-09-17 14:49:49 292088]
"APSDaemon"="C:\Program Files (x86)\Common Files\Apple\Apple Application Support\APSDaemon.exe" [2014-10-11 12:05:40 60712]
"avgnt"="C:\Program Files (x86)\Avira\AntiVir Desktop\avgnt.exe" [2015-04-12 15:50:45 726320]
"QuickTime Task"="C:\Program Files (x86)\QuickTime\QTTask.exe" [2013-05-01 02:59:04 421888]
"HP Software Update"="C:\Program Files (x86)\Hp\HP Software Update\HPWuSchd2.exe" [2011-10-28 11:18:46 49208]
"Adobe Creative Cloud"="C:\Program Files (x86)\Adobe\Adobe Creative Cloud\ACC\Creative Cloud.exe" [2014-02-11 09:54:18 2239376]
"iTunesHelper"="C:\Program Files (x86)\iTunes\iTunesHelper.exe" [2014-10-15 04:42:34 157480]

C:\Users\Jules\AppData\Roaming\Microsoft\Windows\Start Menu\Programs\Startup\
Alertes de surveillance de l'encre - HP Officejet 4620 series (r�seau).lnk - C:\Windows\system32\RunDll32.exe "C:\Program Files\HP\HP Officejet 4620 series\bin\HPStatusBL.dll",RunDLLEntry SERIALNUMBER=CN3A43425X05RT;CONNECTION=NW;MONITOR=1; [2009-7-14 45568]
Dropbox.lnk - C:\Users\Jules\AppData\Roaming\Dropbox\bin\Dropbox.exe /systemstartup [2015-5-1 43377944]

C:\ProgramData\Microsoft\Windows\Start Menu\Programs\Startup\
GIGABYTE OC_GURU.lnk - C:\Program Files (x86)\GIGABYTE\GIGABYTE OC_GURU II\OC_GURU.exe [2011-6-4 17428480]

[HKEY_LOCAL_MACHINE\software\microsoft\windows\currentversion\policies\system]
"ConsentPromptBehaviorAdmin"= 0 (0x0)
"ConsentPromptBehaviorUser"= 3 (0x3)
"EnableLUA"= 0 (0x0)
"EnableUIADesktopToggle"= 0 (0x0)
"PromptOnSecureDesktop"= 0 (0x0)

[HKEY_LOCAL_MACHINE\software\microsoft\windows\currentversion\policies\explorer]
"EnableShellExecuteHooks"= 1 (0x1)

[hkey_local_machine\software\Wow6432Node\microsoft\windows\currentversion\explorer\ShellExecuteHooks]
"{EE761688-C137-4b04-8FAB-3C9CDF0886F0}"= "C:\Program Files\GPSoftware\Directory Opus\dopuslib32.dll" [2012-09-19 10:01:10 364688]

[HKEY_LOCAL_MACHINE\SYSTEM\CurrentControlSet\Control\SafeBoot\Minimal\sr.sys]
@="FSFilter System Recovery"

R2 AntiVirMailService;Avira Protection e-mail;C:\Program Files (x86)\Avira\AntiVir Desktop\avmailc7.exe;C:\Program Files (x86)\Avira\AntiVir Desktop\avmailc7.exe [x]
R2 AntiVirWebService;Avira Protection Web;C:\Program Files (x86)\Avira\AntiVir Desktop\avwebg7.exe;C:\Program Files (x86)\Avira\AntiVir Desktop\avwebg7.exe [x]
R2 clr_optimization_v4.0.30319_64;Microsoft .NET Framework NGEN v4.0.30319_X64;C:\Windows\Microsoft.NET\Framework64\v4.0.30319\mscorsvw.exe;C:\Windows\Microsoft.NET\Framework64\v4.0.30319\mscorsvw.exe [x]
R2 DirMngr;DirMngr;C:\Program Files (x86)\GNU\GnuPG\dirmngr.exe;C:\Program Files (x86)\GNU\GnuPG\dirmngr.exe [x]
R2 DroidExplorerService;DroidExplorer Service;C:\Program Files\Droid Explorer\DroidExplorer.Service.exe;C:\Program Files\Droid Explorer\DroidExplorer.Service.exe [x]
R2 MBAMService;MBAMService;C:\Program Files (x86)\Malwarebytes Anti-Malware\mbamservice.exe;C:\Program Files (x86)\Malwarebytes Anti-Malware\mbamservice.exe [x]
R2 SkypeUpdate;Skype Updater;C:\Program Files (x86)\Skype\Updater\Updater.exe;C:\Program Files (x86)\Skype\Updater\Updater.exe [x]
R3 AppleChargerSrv;AppleChargerSrv;C:\Windows\system32\AppleChargerSrv.exe;C:\Windows\SYSNATIVE\AppleChargerSrv.exe [x]
R3 dmvsc;dmvsc;C:\Windows\system32\drivers\dmvsc.sys;C:\Windows\SYSNATIVE\drivers\dmvsc.sys [x]
R3 etdrv;etdrv;C:\Windows\etdrv.sys;C:\Windows\etdrv.sys [x]
R3 GVTDrv64;GVTDrv64;C:\Windows\GVTDrv64.sys;C:\Windows\GVTDrv64.sys [x]
R3 Hfsplus;Hfsplus;C:\Windows\system32\DRIVERS\hfsplus.sys;C:\Windows\SYSNATIVE\DRIVERS\hfsplus.sys [x]
R3 ICCS;Intel(R) Integrated Clock Controller Service - Intel(R) ICCS;C:\Program Files (x86)\Intel\Intel(R) Integrated Clock Controller Service\ICCProxy.exe;C:\Program Files (x86)\Intel\Intel(R) Integrated Clock Controller Service\ICCProxy.exe [x]
R3 IEEtwCollectorService;Internet Explorer ETW Collector Service;C:\Windows\system32\IEEtwCollector.exe;C:\Windows\SYSNATIVE\IEEtwCollector.exe [x]
R3 libusb0;LibUsb-Win32 - Kernel Driver, Version 0.1.10.1;C:\Windows\system32\drivers\libusb0.sys;C:\Windows\SYSNATIVE\drivers\libusb0.sys [x]
R3 ma-config_amd64;ma-config_amd64;C:\Program Files\ma-config.com\Drivers\ma-config_amd64.sys;C:\Program Files\ma-config.com\Drivers\ma-config_amd64.sys [x]
R3 MBAMWebAccessControl;MBAMWebAccessControl;C:\Windows\system32\drivers\mwac.sys;C:\Windows\SYSNATIVE\drivers\mwac.sys [x]
R3 MotioninJoyXFilter;MotioninJoy Virtual Xinput device Filter Driver;C:\Windows\system32\DRIVERS\MijXfilt.sys;C:\Windows\SYSNATIVE\DRIVERS\MijXfilt.sys [x]
R3 OCUSBVID;Oculus Positional Tracker Service;C:\Windows\system32\DRIVERS\OCUSBVID.sys;C:\Windows\SYSNATIVE\DRIVERS\OCUSBVID.sys [x]
R3 ose64;Office 64 Source Engine;C:\Program Files\Common Files\Microsoft Shared\Source Engine\OSE.EXE;C:\Program Files\Common Files\Microsoft Shared\Source Engine\OSE.EXE [x]
R3 RdpVideoMiniport;Remote Desktop Video Miniport Driver;C:\Windows\system32\drivers\rdpvideominiport.sys;C:\Windows\SYSNATIVE\drivers\rdpvideominiport.sys [x]
R3 Synth3dVsc;Synth3dVsc;C:\Windows\system32\drivers\synth3dvsc.sys;C:\Windows\SYSNATIVE\drivers\synth3dvsc.sys [x]
R3 terminpt;Microsoft Remote Desktop Input Driver;C:\Windows\system32\drivers\terminpt.sys;C:\Windows\SYSNATIVE\drivers\terminpt.sys [x]
R3 TsUsbFlt;TsUsbFlt;C:\Windows\system32\drivers\tsusbflt.sys;C:\Windows\SYSNATIVE\drivers\tsusbflt.sys [x]
R3 TsUsbGD;Remote Desktop Generic USB Device;C:\Windows\system32\drivers\TsUsbGD.sys;C:\Windows\SYSNATIVE\drivers\TsUsbGD.sys [x]
R3 tsusbhub;tsusbhub;C:\Windows\system32\drivers\tsusbhub.sys;C:\Windows\SYSNATIVE\drivers\tsusbhub.sys [x]
R3 USBAAPL64;Apple Mobile USB Driver;C:\Windows\system32\Drivers\usbaapl64.sys;C:\Windows\SYSNATIVE\Drivers\usbaapl64.sys [x]
R3 VGPU;VGPU;C:\Windows\system32\drivers\rdvgkmd.sys;C:\Windows\SYSNATIVE\drivers\rdvgkmd.sys [x]
R3 wampmysqld64;wampmysqld64;c:\wamp\bin\mysql\mysql5.6.17\bin\mysqld.exe wampmysqld64;c:\wamp\bin\mysql\mysql5.6.17\bin\mysqld.exe wampmysqld64 [x]
R3 WatAdminSvc;Service Windows Activation Technologies;C:\Windows\system32\Wat\WatAdminSvc.exe;C:\Windows\SYSNATIVE\Wat\WatAdminSvc.exe [x]
R3 WinRing0_1_2_0;WinRing0_1_2_0;C:\Program Files\PC Monitor\PCMonitorSrv.sys;C:\Program Files\PC Monitor\PCMonitorSrv.sys [x]
R3 WsAudio_Device(1);WsAudio_Device(1);C:\Windows\system32\drivers\VirtualAudio1.sys;C:\Windows\SYSNATIVE\drivers\VirtualAudio1.sys [x]
R3 WsAudio_Device(2);WsAudio_Device(2);C:\Windows\system32\drivers\VirtualAudio2.sys;C:\Windows\SYSNATIVE\drivers\VirtualAudio2.sys [x]
R3 WsAudio_Device(3);WsAudio_Device(3);C:\Windows\system32\drivers\VirtualAudio3.sys;C:\Windows\SYSNATIVE\drivers\VirtualAudio3.sys [x]
R3 WsAudio_Device(4);WsAudio_Device(4);C:\Windows\system32\drivers\VirtualAudio4.sys;C:\Windows\SYSNATIVE\drivers\VirtualAudio4.sys [x]
R3 WsAudio_Device(5);WsAudio_Device(5);C:\Windows\system32\drivers\VirtualAudio5.sys;C:\Windows\SYSNATIVE\drivers\VirtualAudio5.sys [x]
R3 WsAudio_DeviceS(1);WsAudio_DeviceS(1);C:\Windows\system32\drivers\WsAudio_DeviceS(1).sys;C:\Windows\SYSNATIVE\drivers\WsAudio_DeviceS(1).sys [x]
R3 WsAudio_DeviceS(2);WsAudio_DeviceS(2);C:\Windows\system32\drivers\WsAudio_DeviceS(2).sys;C:\Windows\SYSNATIVE\drivers\WsAudio_DeviceS(2).sys [x]
R3 WsAudio_DeviceS(3);WsAudio_DeviceS(3);C:\Windows\system32\drivers\WsAudio_DeviceS(3).sys;C:\Windows\SYSNATIVE\drivers\WsAudio_DeviceS(3).sys [x]
R3 WsAudio_DeviceS(4);WsAudio_DeviceS(4);C:\Windows\system32\drivers\WsAudio_DeviceS(4).sys;C:\Windows\SYSNATIVE\drivers\WsAudio_DeviceS(4).sys [x]
R3 WsAudio_DeviceS(5);WsAudio_DeviceS(5);C:\Windows\system32\drivers\WsAudio_DeviceS(5).sys;C:\Windows\SYSNATIVE\drivers\WsAudio_DeviceS(5).sys [x]
S0 apmwin;apmwin;C:\Windows\system32\DRIVERS\apmwin.sys;C:\Windows\SYSNATIVE\DRIVERS\apmwin.sys [x]
S0 gpt_loader;GUID Partition table support driver;C:\Windows\system32\DRIVERS\gpt_loader.sys;C:\Windows\SYSNATIVE\DRIVERS\gpt_loader.sys [x]
S0 iusb3hcs;Pilote de commutateur de contr�leur d'h�te Intel(R) USB 3.0;C:\Windows\system32\DRIVERS\iusb3hcs.sys;C:\Windows\SYSNATIVE\DRIVERS\iusb3hcs.sys [x]
S0 mounthlp;Mounter helper driver for HFS+ volumes;C:\Windows\system32\DRIVERS\mounthlp.sys;C:\Windows\SYSNATIVE\DRIVERS\mounthlp.sys [x]
S1 AppleCharger;AppleCharger;C:\Windows\system32\DRIVERS\AppleCharger.sys;C:\Windows\SYSNATIVE\DRIVERS\AppleCharger.sys [x]
S1 avkmgr;avkmgr;C:\Windows\system32\DRIVERS\avkmgr.sys;C:\Windows\SYSNATIVE\DRIVERS\avkmgr.sys [x]
S2 AntiVirSchedulerService;Avira Planificateur;C:\Program Files (x86)\Avira\AntiVir Desktop\sched.exe;C:\Program Files (x86)\Avira\AntiVir Desktop\sched.exe [x]
S2 avnetflt;avnetflt;C:\Windows\system32\DRIVERS\avnetflt.sys;C:\Windows\SYSNATIVE\DRIVERS\avnetflt.sys [x]
S2 chromoting;Service Bureau � distance Google�Chrome;C:\Program Files (x86)\Google\Chrome Remote Desktop\42.0.2311.87\remoting_host.exe;C:\Program Files (x86)\Google\Chrome Remote Desktop\42.0.2311.87\remoting_host.exe [x]
S2 GfExperienceService;NVIDIA GeForce Experience Service;C:\Program Files\NVIDIA Corporation\GeForce Experience Service\GfExperienceService.exe;C:\Program Files\NVIDIA Corporation\GeForce Experience Service\GfExperienceService.exe [x]
S2 HfsplusRec;HfsplusRec;C:\Windows\system32\DRIVERS\hfsplusrec.sys;C:\Windows\SYSNATIVE\DRIVERS\hfsplusrec.sys [x]
S2 IAStorDataMgrSvc;Intel(R) Rapid Storage Technology;C:\Program Files (x86)\Intel\Intel(R) Rapid Storage Technology\IAStorDataMgrSvc.exe;C:\Program Files (x86)\Intel\Intel(R) Rapid Storage Technology\IAStorDataMgrSvc.exe [x]
S2 Intel(R) Capability Licensing Service Interface;Intel(R) Capability Licensing Service Interface;C:\Program Files\Intel\iCLS Client\HeciServer.exe;C:\Program Files\Intel\iCLS Client\HeciServer.exe [x]
S2 jhi_service;Intel(R) Dynamic Application Loader Host Interface Service;C:\Program Files (x86)\Intel\Intel(R) Management Engine Components\DAL\jhi_service.exe;C:\Program Files (x86)\Intel\Intel(R) Management Engine Components\DAL\jhi_service.exe [x]
S2 MaConfigAgent;Ma-Config Agent;C:\Program Files\ma-config.com\MaConfigAgent.exe;C:\Program Files\ma-config.com\MaConfigAgent.exe [x]
S2 NvNetworkService;NVIDIA Network Service;C:\Program Files (x86)\NVIDIA Corporation\NetService\NvNetworkService.exe;C:\Program Files (x86)\NVIDIA Corporation\NetService\NvNetworkService.exe [x]
S2 NvStreamSvc;NVIDIA Streamer Service;C:\Program Files\NVIDIA Corporation\NvStreamSrv\nvstreamsvc.exe;C:\Program Files\NVIDIA Corporation\NvStreamSrv\nvstreamsvc.exe [x]
S2 PC Monitor;PC Monitor;C:\Program Files\PC Monitor\PCMonitorSrv.exe;C:\Program Files\PC Monitor\PCMonitorSrv.exe [x]
S2 PDF Architect Helper Service;PDF Architect Helper Service;C:\Program Files (x86)\PDF Architect\HelperService.exe;C:\Program Files (x86)\PDF Architect\HelperService.exe [x]
S2 PDF Architect Service;PDF Architect Service;C:\Program Files (x86)\PDF Architect\ConversionService.exe;C:\Program Files (x86)\PDF Architect\ConversionService.exe [x]
S2 Stereo Service;NVIDIA Stereoscopic 3D Driver Service;C:\Program Files (x86)\NVIDIA Corporation\3D Vision\nvSCPAPISvr.exe;C:\Program Files (x86)\NVIDIA Corporation\3D Vision\nvSCPAPISvr.exe [x]
S2 UNS;Intel(R) Management and Security Application User Notification Service;C:\Program Files (x86)\Intel\Intel(R) Management Engine Components\UNS\UNS.exe;C:\Program Files (x86)\Intel\Intel(R) Management Engine Components\UNS\UNS.exe [x]
S2 VIAKaraokeService;VIA Karaoke digital mixer Service;C:\Windows\system32\viakaraokesrv.exe;C:\Windows\SYSNATIVE\viakaraokesrv.exe [x]
S3 BCMH43XX;Broadcom 802.11 USB Network Adapter Driver;C:\Windows\system32\DRIVERS\bcmwlhigh664.sys;C:\Windows\SYSNATIVE\DRIVERS\bcmwlhigh664.sys [x]
S3 dc3d;MS Hardware Device Detection Driver (USB);C:\Windows\system32\DRIVERS\dc3d.sys;C:\Windows\SYSNATIVE\DRIVERS\dc3d.sys [x]
S3 Disc Soft Lite Bus Service;Disc Soft Lite Bus Service;C:\Program Files\DAEMON Tools Lite\DiscSoftBusService.exe;C:\Program Files\DAEMON Tools Lite\DiscSoftBusService.exe [x]
S3 dtlitescsibus;DAEMON Tools Lite Virtual SCSI Bus;C:\Windows\system32\DRIVERS\dtlitescsibus.sys;C:\Windows\SYSNATIVE\DRIVERS\dtlitescsibus.sys [x]
S3 EtronHub3;Etron USB 3.0 Extensible Hub Driver;C:\Windows\system32\Drivers\EtronHub3.sys;C:\Windows\SYSNATIVE\Drivers\EtronHub3.sys [x]
S3 EtronXHCI;Etron USB 3.0 Extensible Host Controller Driver;C:\Windows\system32\Drivers\EtronXHCI.sys;C:\Windows\SYSNATIVE\Drivers\EtronXHCI.sys [x]
S3 iusb3hub;Pilote de concentrateur Intel(R) USB 3.0;C:\Windows\system32\DRIVERS\iusb3hub.sys;C:\Windows\SYSNATIVE\DRIVERS\iusb3hub.sys [x]
S3 iusb3xhc;Pilote du contr�leur d'h�te extensible Intel(R) USB 3.0;C:\Windows\system32\DRIVERS\iusb3xhc.sys;C:\Windows\SYSNATIVE\DRIVERS\iusb3xhc.sys [x]
S3 L1C;NDIS Miniport Driver for Atheros AR813x/AR815x PCI-E Ethernet Controller;C:\Windows\system32\DRIVERS\L1C62x64.sys;C:\Windows\SYSNATIVE\DRIVERS\L1C62x64.sys [x]
S3 MBAMProtector;MBAMProtector;C:\Windows\system32\drivers\mbam.sys;C:\Windows\SYSNATIVE\drivers\mbam.sys [x]
S3 notecable;NoteCable Driver (WDM);C:\Windows\system32\drivers\notcable.sys;C:\Windows\SYSNATIVE\drivers\notcable.sys [x]
S3 NvStreamKms;NvStreamKms;C:\Program Files\NVIDIA Corporation\NvStreamSrv\NvStreamKms.sys;C:\Program Files\NVIDIA Corporation\NvStreamSrv\NvStreamKms.sys [x]
S3 nvvad_WaveExtensible;NVIDIA Virtual Audio Device (Wave Extensible) (WDM);C:\Windows\system32\drivers\nvvad64v.sys;C:\Windows\SYSNATIVE\drivers\nvvad64v.sys [x]
S3 Point64;Microsoft Mouse and Keyboard Center Filter Driver;C:\Windows\system32\DRIVERS\point64.sys;C:\Windows\SYSNATIVE\DRIVERS\point64.sys [x]
S3 ScpVBus;Scp Virtual Bus Driver;C:\Windows\system32\DRIVERS\ScpVBus.sys;C:\Windows\SYSNATIVE\DRIVERS\ScpVBus.sys [x]
S3 VIAHdAudAddService;VIA High Definition Audio Driver Service;C:\Windows\system32\drivers\viahduaa.sys;C:\Windows\SYSNATIVE\drivers\viahduaa.sys [x]


--- Autres Services/Pilotes en m�moire ---

*Deregistered* - GPCIDrv

Contenu du dossier 'T�ches planifi�es'

2015-05-03 C:\Windows\Tasks\Adobe Flash Player Updater.job
- C:\Windows\SysWOW64\Macromed\Flash\FlashPlayerUpdateService.exe [2012-10-09 23:35:02 . 2015-02-05 20:01:18]

2015-05-03 C:\Windows\Tasks\GoogleUpdateTaskMachineCore.job
- C:\Program Files (x86)\Google\Update\GoogleUpdate.exe [2014-04-18 12:53:33 . 2014-04-18 12:53:32]

2015-05-03 C:\Windows\Tasks\GoogleUpdateTaskMachineUA.job
- C:\Program Files (x86)\Google\Update\GoogleUpdate.exe [2014-04-18 12:53:33 . 2014-04-18 12:53:32]

2015-05-03 C:\Windows\Tasks\GoogleUpdateTaskUserS-1-5-21-3799693477-4109769669-2310884168-1000Core.job
- C:\Users\Jules\AppData\Local\Google\Update\GoogleUpdate.exe [2012-10-05 20:33:20 . 2012-10-05 20:33:20]

2015-05-03 C:\Windows\Tasks\GoogleUpdateTaskUserS-1-5-21-3799693477-4109769669-2310884168-1000UA.job
- C:\Users\Jules\AppData\Local\Google\Update\GoogleUpdate.exe [2012-10-05 20:33:20 . 2012-10-05 20:33:20]


--------- X64 Entries -----------


[HKEY_LOCAL_MACHINE\software\microsoft\windows\currentversion\explorer\shelliconoverlayidentifiers\ SkyDrivePro1 (ErrorConflict)]
@="{8BA85C75-763B-4103-94EB-9470F12FE0F7}"
[HKEY_CLASSES_ROOT\CLSID\{8BA85C75-763B-4103-94EB-9470F12FE0F7}]
2014-10-14 22:27:50 2334928 ----a-w- C:\PROGRA~1\MICROS~2\Office15\GROOVEEX.DLL

[HKEY_LOCAL_MACHINE\software\microsoft\windows\currentversion\explorer\shelliconoverlayidentifiers\ SkyDrivePro2 (SyncInProgress)]
@="{CD55129A-B1A1-438E-A425-CEBC7DC684EE}"
[HKEY_CLASSES_ROOT\CLSID\{CD55129A-B1A1-438E-A425-CEBC7DC684EE}]
2014-10-14 22:27:50 2334928 ----a-w- C:\PROGRA~1\MICROS~2\Office15\GROOVEEX.DLL

[HKEY_LOCAL_MACHINE\software\microsoft\windows\currentversion\explorer\shelliconoverlayidentifiers\ SkyDrivePro3 (InSync)]
@="{E768CD3B-BDDC-436D-9C13-E1B39CA257B1}"
[HKEY_CLASSES_ROOT\CLSID\{E768CD3B-BDDC-436D-9C13-E1B39CA257B1}]
2014-10-14 22:27:50 2334928 ----a-w- C:\PROGRA~1\MICROS~2\Office15\GROOVEEX.DLL

[HKEY_LOCAL_MACHINE\software\microsoft\windows\currentversion\explorer\shelliconoverlayidentifiers\"DropboxExt1"]
@="{FB314ED9-A251-47B7-93E1-CDD82E34AF8B}"
[HKEY_CLASSES_ROOT\CLSID\{FB314ED9-A251-47B7-93E1-CDD82E34AF8B}]
2015-01-30 21:59:40 185824 ----a-w- C:\Users\Jules\AppData\Roaming\Dropbox\bin\DropboxExt64.25.dll

[HKEY_LOCAL_MACHINE\software\microsoft\windows\currentversion\explorer\shelliconoverlayidentifiers\"DropboxExt2"]
@="{FB314EDA-A251-47B7-93E1-CDD82E34AF8B}"
[HKEY_CLASSES_ROOT\CLSID\{FB314EDA-A251-47B7-93E1-CDD82E34AF8B}]
2015-01-30 21:59:40 185824 ----a-w- C:\Users\Jules\AppData\Roaming\Dropbox\bin\DropboxExt64.25.dll

[HKEY_LOCAL_MACHINE\software\microsoft\windows\currentversion\explorer\shelliconoverlayidentifiers\"DropboxExt3"]
@="{FB314EDD-A251-47B7-93E1-CDD82E34AF8B}"
[HKEY_CLASSES_ROOT\CLSID\{FB314EDD-A251-47B7-93E1-CDD82E34AF8B}]
2015-01-30 21:59:40 185824 ----a-w- C:\Users\Jules\AppData\Roaming\Dropbox\bin\DropboxExt64.25.dll

[HKEY_LOCAL_MACHINE\software\microsoft\windows\currentversion\explorer\shelliconoverlayidentifiers\"DropboxExt4"]
@="{FB314EDE-A251-47B7-93E1-CDD82E34AF8B}"
[HKEY_CLASSES_ROOT\CLSID\{FB314EDE-A251-47B7-93E1-CDD82E34AF8B}]
2015-01-30 21:59:40 185824 ----a-w- C:\Users\Jules\AppData\Roaming\Dropbox\bin\DropboxExt64.25.dll

[HKEY_LOCAL_MACHINE\software\microsoft\windows\currentversion\explorer\shelliconoverlayidentifiers\"DropboxExt5"]
@="{FB314EDB-A251-47B7-93E1-CDD82E34AF8B}"
[HKEY_CLASSES_ROOT\CLSID\{FB314EDB-A251-47B7-93E1-CDD82E34AF8B}]
2015-01-30 21:59:40 185824 ----a-w- C:\Users\Jules\AppData\Roaming\Dropbox\bin\DropboxExt64.25.dll

[HKEY_LOCAL_MACHINE\software\microsoft\windows\currentversion\explorer\shelliconoverlayidentifiers\"DropboxExt6"]
@="{FB314EDF-A251-47B7-93E1-CDD82E34AF8B}"
[HKEY_CLASSES_ROOT\CLSID\{FB314EDF-A251-47B7-93E1-CDD82E34AF8B}]
2015-01-30 21:59:40 185824 ----a-w- C:\Users\Jules\AppData\Roaming\Dropbox\bin\DropboxExt64.25.dll

[HKEY_LOCAL_MACHINE\software\microsoft\windows\currentversion\explorer\shelliconoverlayidentifiers\"DropboxExt7"]
@="{FB314EDC-A251-47B7-93E1-CDD82E34AF8B}"
[HKEY_CLASSES_ROOT\CLSID\{FB314EDC-A251-47B7-93E1-CDD82E34AF8B}]
2015-01-30 21:59:40 185824 ----a-w- C:\Users\Jules\AppData\Roaming\Dropbox\bin\DropboxExt64.25.dll

[HKEY_LOCAL_MACHINE\software\microsoft\windows\currentversion\explorer\shelliconoverlayidentifiers\"DropboxExt8"]
@="{FB314EE0-A251-47B7-93E1-CDD82E34AF8B}"
[HKEY_CLASSES_ROOT\CLSID\{FB314EE0-A251-47B7-93E1-CDD82E34AF8B}]
2015-01-30 21:59:40 185824 ----a-w- C:\Users\Jules\AppData\Roaming\Dropbox\bin\DropboxExt64.25.dll

[HKEY_LOCAL_MACHINE\SOFTWARE\Microsoft\Windows\CurrentVersion\Run]
"ShadowPlay"="C:\Windows\system32\nvspcap64.dll" [2015-03-28 03:43:39 1570672]
"NvBackend"="C:\Program Files (x86)\NVIDIA Corporation\Update Core\NvBackend.exe" [2015-03-28 03:45:04 2673296]

[hkey_local_machine\software\microsoft\windows\currentversion\explorer\ShellExecuteHooks]
"{3CF9ECE0-1A9F-11D2-8C73-00C06C2005DE}"= "C:\Program Files\GPSoftware\Directory Opus\dopuslib.dll" [2012-09-19 10:01:26 1383608]

------- Examen suppl�mentaire -------

uLocal Page = C:\Windows\SysWOW64\blank.htm
uStart Page = hxxp://www.google.com/
mStart Page = hxxp://google.fr
mLocal Page = C:\Windows\SysWOW64\blank.htm
mSearch Page = hxxp://google.fr
mSearch Bar = hxxp://www.google.com/
uSearchAssistant = hxxp://www.google.com/
uCustomizeSearch = hxxp://www.google.com/
mSearchAssistant = hxxp://www.google.com/ie
mCustomizeSearch = hxxp://www.google.com/
IE: &Envoyer � OneNote - C:\PROGRA~1\MICROS~2\Office15\ONBttnIE.dll/105
IE: E&xporter vers Microsoft Excel - C:\PROGRA~1\MICROS~2\Office15\EXCEL.EXE/3000
TCP: DhcpNameServer = 8.8.8.8 195.186.1.162 195.186.4.162
Filter: text/xml - {807583E5-5146-11D5-A672-00B0D022E945} - C:\Program Files (x86)\Common Files\microsoft shared\OFFICE15\MSOXMLMF.DLL
FF - ProfilePath - C:\Users\Jules\AppData\Roaming\Mozilla\Firefox\Profiles\tlhrzvzp.default-1418726457846\

- - - - ORPHELINS SUPPRIMES - - - -

Wow6432Node-HKLM-Run- - (no file)
SafeBoot-dmboot.sys
SafeBoot-dmio.sys
SafeBoot-dmload.sys
SafeBoot-dmadmin
SafeBoot-dmserver
SafeBoot-SRService
HKLM_Wow6432Node-ActiveSetup-{2D46B6DC-2207-486B-B523-A557E6D54B47} - start
HKLM_Wow6432Node-ActiveSetup-{8A69D345-D564-463c-AFF1-A69D9E530F96} - C:\Program Files (x86)\Google\Chrome\Application\38.0.2125.122\Installer\chrmstp.exe
AddRemove-dBpoweramp Musepack Codec - C:\Windows\system32\SpoonUninstall.exe
AddRemove-dBpoweramp Music Converter - C:\Windows\system32\SpoonUninstall.exe



Publicité


Signaler le contenu de ce document

Publicité